TTW167 RJNK-RCTP

Flight info

Callsign TTW167
Flight time N/A
Altitude 36000
Route SONBU3 YME V38 KTE V53 POPPY Y75 IGBOD Y34 HKC Y50 KOSHI A1 DRAKE DRAKE1A
Aircraft A20N/M-SDE2E3FGHIRWXY/LB1

Departure

Time N/A
Airport Komatsu Airport / JASDF Komatsu Air Base (RJNK)

Arrival

Time 2026-05-04 02:55
Airport Taiwan Taoyuan International Airport (RCTP)
Time Latitude Longitude Altitude Speed Heading
2026-05-04 00:17 33.91726 133.87158 35839 ft 370 kts 212°
2026-05-04 00:18 33.86987 133.84730 35838 ft 369 kts 213°
2026-05-04 00:18 33.82625 133.81668 35837 ft 358 kts 224°
2026-05-04 00:19 33.79186 133.77466 35827 ft 351 kts 235°
2026-05-04 00:19 33.76346 133.72698 35824 ft 351 kts 237°
2026-05-04 00:20 33.73615 133.67841 35822 ft 351 kts 238°
2026-05-04 00:20 33.70875 133.62987 35817 ft 351 kts 237°
2026-05-04 00:21 33.68117 133.58152 35816 ft 351 kts 237°
2026-05-04 00:21 33.65348 133.53328 35816 ft 351 kts 237°
2026-05-04 00:22 33.62572 133.48503 35828 ft 352 kts 237°
2026-05-04 00:22 33.59807 133.43699 35811 ft 352 kts 238°
2026-05-04 00:23 33.57017 133.38856 35829 ft 353 kts 237°
2026-05-04 00:23 33.54229 133.34027 35839 ft 352 kts 237°
2026-05-04 00:24 33.51436 133.29198 35856 ft 352 kts 237°
2026-05-04 00:24 33.48644 133.24374 35871 ft 353 kts 237°
2026-05-04 00:25 33.45836 133.19525 35870 ft 353 kts 237°
2026-05-04 00:25 33.43034 133.14696 35875 ft 353 kts 237°
2026-05-04 00:26 33.40244 133.09892 35879 ft 355 kts 237°
2026-05-04 00:26 33.37416 133.05030 35882 ft 356 kts 237°
2026-05-04 00:27 33.34588 133.00175 35889 ft 355 kts 237°
2026-05-04 00:27 33.31767 132.95338 35879 ft 354 kts 237°
2026-05-04 00:28 33.28953 132.90518 35890 ft 353 kts 237°
2026-05-04 00:28 33.26137 132.85704 35893 ft 352 kts 237°
2026-05-04 00:29 33.23346 132.80935 35894 ft 353 kts 237°
2026-05-04 00:29 33.20522 132.76116 35903 ft 353 kts 237°
2026-05-04 00:30 33.17703 132.71313 35900 ft 353 kts 237°
2026-05-04 00:30 33.14884 132.66513 35901 ft 353 kts 237°
2026-05-04 00:31 33.12089 132.61758 35908 ft 351 kts 237°
2026-05-04 00:31 33.09278 132.56990 35901 ft 351 kts 237°
2026-05-04 00:32 33.06460 132.52215 35903 ft 352 kts 237°
2026-05-04 00:32 33.03645 132.47449 35899 ft 352 kts 237°
2026-05-04 00:33 32.99414 132.40298 35913 ft 351 kts 237°
2026-05-04 00:34 32.96489 132.35629 35915 ft 352 kts 234°
2026-05-04 00:34 32.93358 132.31138 35911 ft 352 kts 233°
2026-05-04 00:35 32.90211 132.26713 35911 ft 352 kts 233°
2026-05-04 00:35 32.87057 132.22247 35920 ft 353 kts 234°
2026-05-04 00:36 32.83912 132.17768 35920 ft 353 kts 234°
2026-05-04 00:36 32.80770 132.13288 35917 ft 353 kts 234°
2026-05-04 00:37 32.77622 132.08806 35919 ft 353 kts 234°
2026-05-04 00:37 32.74469 132.04323 35922 ft 353 kts 234°
2026-05-04 00:38 32.71310 131.99839 35920 ft 354 kts 234°
2026-05-04 00:38 32.68144 131.95350 35923 ft 354 kts 234°
2026-05-04 00:39 32.64977 131.90865 35924 ft 355 kts 234°
2026-05-04 00:39 32.61817 131.86395 35926 ft 356 kts 234°
2026-05-04 00:40 32.58637 131.81903 35927 ft 356 kts 234°
2026-05-04 00:40 32.55451 131.77404 35931 ft 356 kts 233°
2026-05-04 00:41 32.52263 131.72907 35932 ft 356 kts 233°
2026-05-04 00:41 32.49066 131.68402 35935 ft 357 kts 233°
2026-05-04 00:42 32.45868 131.63902 35937 ft 357 kts 233°
2026-05-04 00:42 32.42666 131.59402 35937 ft 357 kts 233°
2026-05-04 00:43 32.39479 131.54929 35945 ft 358 kts 233°
2026-05-04 00:43 32.36263 131.50420 35939 ft 358 kts 233°
2026-05-04 00:44 32.33043 131.45912 35943 ft 359 kts 233°
2026-05-04 00:44 32.29819 131.41403 35953 ft 359 kts 233°
2026-05-04 00:45 32.26589 131.36890 35950 ft 358 kts 233°
2026-05-04 00:45 32.23391 131.32427 35955 ft 358 kts 233°
2026-05-04 00:46 32.20175 131.27947 35955 ft 358 kts 233°
2026-05-04 00:46 32.16949 131.23457 35954 ft 358 kts 233°
2026-05-04 00:47 32.13722 131.18970 35965 ft 358 kts 233°
2026-05-04 00:47 32.10493 131.14488 35977 ft 358 kts 233°
2026-05-04 00:48 32.07264 131.10012 35980 ft 358 kts 233°
2026-05-04 00:48 32.04051 131.05560 35979 ft 358 kts 233°
2026-05-04 00:49 32.00816 131.01082 35984 ft 358 kts 233°
2026-05-04 00:49 31.97583 130.96611 35989 ft 358 kts 233°
2026-05-04 00:50 31.94342 130.92135 35990 ft 358 kts 234°
2026-05-04 00:50 31.91119 130.87688 36000 ft 357 kts 233°
2026-05-04 00:51 31.87907 130.83262 36002 ft 358 kts 234°
2026-05-04 00:51 31.84676 130.78814 35990 ft 358 kts 234°
2026-05-04 00:52 31.81443 130.74368 35993 ft 357 kts 233°
2026-05-04 00:52 31.78212 130.69930 35990 ft 357 kts 233°
2026-05-04 00:53 31.74980 130.65498 35989 ft 356 kts 234°
2026-05-04 00:53 31.71754 130.61079 35997 ft 356 kts 233°
2026-05-04 00:54 31.68580 130.56618 36019 ft 355 kts 235°
2026-05-04 00:54 31.65576 130.52070 36012 ft 355 kts 236°
2026-05-04 00:55 31.62586 130.47466 36015 ft 355 kts 236°
2026-05-04 00:55 31.59583 130.42871 36027 ft 355 kts 236°
2026-05-04 00:56 31.56571 130.38292 36038 ft 354 kts 236°
2026-05-04 00:56 31.53551 130.33716 36037 ft 355 kts 236°
2026-05-04 00:57 31.50530 130.29144 36039 ft 355 kts 236°
2026-05-04 00:57 31.47505 130.24568 36043 ft 355 kts 236°
2026-05-04 00:58 31.44482 130.20002 36045 ft 354 kts 236°
2026-05-04 00:58 31.41464 130.15449 36044 ft 353 kts 236°
2026-05-04 00:59 31.38460 130.10921 36047 ft 354 kts 236°
2026-05-04 00:59 31.35429 130.06358 36043 ft 354 kts 236°
2026-05-04 01:00 31.32400 130.01803 36045 ft 355 kts 236°
2026-05-04 01:00 31.29368 129.97251 36045 ft 354 kts 236°
2026-05-04 01:01 31.26338 129.92706 36048 ft 354 kts 236°
2026-05-04 01:01 31.23309 129.88168 36050 ft 354 kts 235°
2026-05-04 01:02 31.20295 129.83657 36050 ft 354 kts 235°
2026-05-04 01:02 31.17258 129.79118 36051 ft 354 kts 235°
2026-05-04 01:03 31.14221 129.74584 36055 ft 355 kts 235°
2026-05-04 01:03 31.11178 129.70046 36051 ft 355 kts 235°
2026-05-04 01:04 31.08153 129.65539 36054 ft 355 kts 235°
2026-05-04 01:04 31.05602 129.61743 36061 ft 355 kts 235°
2026-05-04 01:05 31.02050 129.56463 36059 ft 356 kts 235°
2026-05-04 01:05 30.99483 129.52652 36061 ft 357 kts 235°
2026-05-04 01:06 30.96415 129.48103 36063 ft 357 kts 235°
2026-05-04 01:06 30.93362 129.43583 36063 ft 357 kts 235°
2026-05-04 01:07 30.90285 129.39030 36061 ft 357 kts 235°
2026-05-04 01:07 30.87208 129.34483 36065 ft 358 kts 235°
2026-05-04 01:08 30.84124 129.29931 36069 ft 358 kts 235°
2026-05-04 01:08 30.81032 129.25372 36068 ft 358 kts 235°
2026-05-04 01:09 30.77942 129.20819 36073 ft 359 kts 235°
2026-05-04 01:09 30.74888 129.16223 36074 ft 359 kts 236°
2026-05-04 01:10 30.71858 129.11595 36075 ft 360 kts 236°
2026-05-04 01:10 30.68843 129.06993 36075 ft 360 kts 236°
2026-05-04 01:11 30.65799 129.02361 36077 ft 361 kts 236°
2026-05-04 01:11 30.62744 128.97723 36081 ft 361 kts 236°
2026-05-04 01:12 30.59687 128.93090 36084 ft 361 kts 236°
2026-05-04 01:12 30.56646 128.88486 36081 ft 362 kts 236°
2026-05-04 01:13 30.53582 128.83852 36081 ft 362 kts 236°
2026-05-04 01:13 30.50510 128.79209 36085 ft 362 kts 236°
2026-05-04 01:14 30.47435 128.74571 36091 ft 362 kts 236°
2026-05-04 01:14 30.44361 128.69937 36087 ft 363 kts 236°
2026-05-04 01:15 30.41303 128.65333 36089 ft 363 kts 236°
2026-05-04 01:15 30.38219 128.60695 36088 ft 363 kts 236°
2026-05-04 01:16 30.35129 128.56054 36087 ft 363 kts 236°
2026-05-04 01:16 30.32040 128.51420 36094 ft 364 kts 236°
2026-05-04 01:17 30.28957 128.46800 36095 ft 364 kts 236°
2026-05-04 01:17 30.25857 128.42160 36098 ft 364 kts 236°
2026-05-04 01:18 30.22747 128.37511 36100 ft 364 kts 236°
2026-05-04 01:18 30.19666 128.32910 36099 ft 364 kts 236°
2026-05-04 01:19 30.16556 128.28271 36098 ft 365 kts 236°
2026-05-04 01:19 30.13447 128.23638 36102 ft 365 kts 236°
2026-05-04 01:20 30.10334 128.19006 36103 ft 365 kts 236°
2026-05-04 01:20 30.07213 128.14366 36105 ft 366 kts 236°
2026-05-04 01:21 30.04085 128.09723 36108 ft 366 kts 236°
2026-05-04 01:21 30.00975 128.05110 36104 ft 367 kts 236°
2026-05-04 01:22 29.97841 128.00467 36108 ft 367 kts 236°
2026-05-04 01:22 29.94698 127.95818 36110 ft 367 kts 236°
2026-05-04 01:23 29.91560 127.91180 36107 ft 367 kts 236°
2026-05-04 01:23 29.88416 127.86539 36108 ft 367 kts 236°
2026-05-04 01:24 29.85224 127.81942 36108 ft 368 kts 234°
2026-05-04 01:24 29.81915 127.77474 36114 ft 369 kts 234°
2026-05-04 01:25 29.78556 127.73007 36110 ft 369 kts 234°
2026-05-04 01:25 29.75205 127.68537 36112 ft 369 kts 234°
2026-05-04 01:26 29.71852 127.64050 36111 ft 370 kts 234°
2026-05-04 01:26 29.68501 127.59563 36114 ft 370 kts 234°
2026-05-04 01:27 29.65143 127.55071 36117 ft 370 kts 234°
2026-05-04 01:27 29.61778 127.50577 36118 ft 370 kts 234°
2026-05-04 01:28 29.58425 127.46074 36119 ft 370 kts 235°
2026-05-04 01:28 29.55201 127.41478 36119 ft 369 kts 236°
2026-05-04 01:29 29.52050 127.36875 36120 ft 369 kts 236°
2026-05-04 01:29 29.48874 127.32248 36125 ft 369 kts 236°
2026-05-04 01:30 29.45689 127.27636 36123 ft 369 kts 236°
2026-05-04 01:30 29.42495 127.23025 36122 ft 369 kts 236°
2026-05-04 01:31 29.39288 127.18404 36126 ft 370 kts 236°
2026-05-04 01:31 29.36078 127.13782 36125 ft 370 kts 236°
2026-05-04 01:32 29.32867 127.09164 36129 ft 371 kts 236°
2026-05-04 01:32 29.29646 127.04535 36133 ft 371 kts 236°
2026-05-04 01:33 29.26421 126.99907 36136 ft 372 kts 236°
2026-05-04 01:33 29.23212 126.95307 36139 ft 372 kts 236°
2026-05-04 01:34 29.19977 126.90675 36137 ft 372 kts 236°
2026-05-04 01:34 29.16736 126.86039 36132 ft 373 kts 236°
2026-05-04 01:35 29.13489 126.81400 36129 ft 373 kts 236°
2026-05-04 01:35 29.10239 126.76762 36134 ft 373 kts 236°
2026-05-04 01:36 29.06989 126.72129 36137 ft 374 kts 235°
2026-05-04 01:36 29.03744 126.67508 36140 ft 374 kts 236°
2026-05-04 01:37 29.00482 126.62869 36137 ft 375 kts 236°
2026-05-04 01:37 28.97207 126.58223 36141 ft 376 kts 235°
2026-05-04 01:38 28.93855 126.53626 36129 ft 377 kts 234°
2026-05-04 01:38 28.90459 126.49061 36147 ft 377 kts 234°
2026-05-04 01:39 28.87060 126.44498 36146 ft 377 kts 234°
2026-05-04 01:39 28.83684 126.39958 36144 ft 377 kts 234°
2026-05-04 01:40 28.80289 126.35391 36133 ft 377 kts 234°
2026-05-04 01:40 28.76892 126.30823 36141 ft 378 kts 234°
2026-05-04 01:41 28.73483 126.26246 36138 ft 378 kts 234°
2026-05-04 01:41 28.70072 126.21672 36137 ft 378 kts 234°
2026-05-04 01:42 28.66665 126.17107 36139 ft 379 kts 234°
2026-05-04 01:42 28.63283 126.12558 36143 ft 378 kts 235°
2026-05-04 01:43 28.59961 126.07911 36143 ft 378 kts 236°
2026-05-04 01:43 28.56667 126.03236 36142 ft 378 kts 236°
2026-05-04 01:44 28.53371 125.98568 36144 ft 378 kts 236°
2026-05-04 01:44 28.50067 125.93911 36148 ft 378 kts 236°
2026-05-04 01:45 28.46758 125.89257 36149 ft 378 kts 236°
2026-05-04 01:45 28.41786 125.82277 36152 ft 378 kts 236°
2026-05-04 01:46 28.38495 125.77661 36149 ft 379 kts 236°
2026-05-04 01:46 28.35177 125.73013 36148 ft 378 kts 235°
2026-05-04 01:47 28.31855 125.68365 36150 ft 378 kts 235°
2026-05-04 01:47 28.28534 125.63722 36151 ft 379 kts 235°
2026-05-04 01:48 28.25208 125.59078 36153 ft 379 kts 235°
2026-05-04 01:48 28.21901 125.54465 36156 ft 379 kts 235°
2026-05-04 01:49 28.18577 125.49833 36151 ft 379 kts 235°
2026-05-04 01:49 28.15242 125.45191 36153 ft 379 kts 235°
2026-05-04 01:50 28.11903 125.40548 36152 ft 380 kts 235°
2026-05-04 01:50 28.08561 125.35906 36153 ft 380 kts 235°
2026-05-04 01:51 28.05784 125.32053 36150 ft 380 kts 235°
2026-05-04 01:51 28.02440 125.27419 36150 ft 380 kts 235°
2026-05-04 01:52 27.99092 125.22784 36152 ft 380 kts 235°
2026-05-04 01:52 27.95739 125.18147 36154 ft 380 kts 235°
2026-05-04 01:53 27.92384 125.13512 36155 ft 381 kts 235°
2026-05-04 01:53 27.89027 125.08880 36155 ft 381 kts 235°
2026-05-04 01:54 27.85669 125.04251 36154 ft 381 kts 235°
2026-05-04 01:54 27.82304 124.99617 36155 ft 381 kts 235°
2026-05-04 01:55 27.78965 124.95025 36151 ft 381 kts 235°
2026-05-04 01:55 27.75601 124.90402 36152 ft 381 kts 235°
2026-05-04 01:56 27.72231 124.85777 36150 ft 381 kts 235°
2026-05-04 01:56 27.68861 124.81156 36153 ft 381 kts 235°
2026-05-04 01:57 27.65488 124.76536 36149 ft 381 kts 235°
2026-05-04 01:57 27.62109 124.71914 36150 ft 382 kts 235°
2026-05-04 01:58 27.58750 124.67317 36151 ft 382 kts 235°
2026-05-04 01:58 27.55371 124.62695 36150 ft 382 kts 235°
2026-05-04 01:59 27.51993 124.58081 36153 ft 382 kts 235°
2026-05-04 01:59 27.48608 124.53461 36149 ft 382 kts 235°
2026-05-04 02:00 27.45221 124.48845 36147 ft 382 kts 235°
2026-05-04 02:00 27.41852 124.44258 36152 ft 382 kts 235°
2026-05-04 02:01 27.38459 124.39643 36150 ft 383 kts 235°
2026-05-04 02:01 27.35059 124.35022 36152 ft 383 kts 235°
2026-05-04 02:02 27.31658 124.30407 36155 ft 383 kts 235°
2026-05-04 02:02 27.28262 124.25803 36153 ft 383 kts 235°
2026-05-04 02:03 27.24877 124.21218 36151 ft 383 kts 234°
2026-05-04 02:03 27.21469 124.16607 36150 ft 383 kts 234°
2026-05-04 02:04 27.18054 124.11992 36157 ft 384 kts 234°
2026-05-04 02:04 27.14642 124.07384 36152 ft 384 kts 234°
2026-05-04 02:05 27.11220 124.02769 36149 ft 384 kts 234°
2026-05-04 02:05 27.07812 123.98192 36149 ft 384 kts 234°
2026-05-04 02:06 27.04357 123.93595 36150 ft 385 kts 234°
2026-05-04 02:06 27.00911 123.89025 36145 ft 385 kts 234°
2026-05-04 02:07 26.97445 123.84428 36143 ft 385 kts 234°
2026-05-04 02:07 26.93987 123.79845 36143 ft 385 kts 234°
2026-05-04 02:08 26.90523 123.75258 36140 ft 385 kts 234°
2026-05-04 02:08 26.87083 123.70708 36136 ft 385 kts 234°
2026-05-04 02:09 26.83622 123.66134 36137 ft 385 kts 234°
2026-05-04 02:09 26.80150 123.61551 36139 ft 385 kts 234°
2026-05-04 02:10 26.76677 123.56972 36144 ft 386 kts 234°
2026-05-04 02:10 26.73204 123.52396 36134 ft 386 kts 234°
2026-05-04 02:11 26.69717 123.47808 36146 ft 386 kts 234°
2026-05-04 02:11 26.66255 123.43257 36141 ft 386 kts 234°
2026-05-04 02:12 26.62771 123.38681 36145 ft 386 kts 234°
2026-05-04 02:12 26.59286 123.34112 36139 ft 386 kts 234°
2026-05-04 02:13 26.55793 123.29535 36140 ft 387 kts 234°
2026-05-04 02:13 26.52298 123.24960 36139 ft 387 kts 234°
2026-05-04 02:14 26.48796 123.20381 36137 ft 388 kts 234°
2026-05-04 02:14 26.45287 123.15798 36142 ft 388 kts 233°
2026-05-04 02:15 26.41777 123.11218 36142 ft 389 kts 233°
2026-05-04 02:15 26.38276 123.06654 36144 ft 389 kts 233°
2026-05-04 02:16 26.34754 123.02069 36146 ft 389 kts 233°
2026-05-04 02:16 26.31228 122.97483 36145 ft 390 kts 233°
2026-05-04 02:17 26.27697 122.92896 36145 ft 390 kts 233°
2026-05-04 02:17 26.24161 122.88307 36142 ft 390 kts 233°
2026-05-04 02:18 26.20624 122.83723 36139 ft 390 kts 233°
2026-05-04 02:18 26.17081 122.79135 36143 ft 391 kts 233°
2026-05-04 02:19 26.13550 122.74568 36142 ft 391 kts 233°
2026-05-04 02:19 26.10003 122.69984 36143 ft 391 kts 233°
2026-05-04 02:20 26.06444 122.65389 36145 ft 392 kts 233°
2026-05-04 02:20 26.02886 122.60800 36145 ft 392 kts 233°
2026-05-04 02:21 25.99322 122.56209 36142 ft 392 kts 233°
2026-05-04 02:21 25.95754 122.51616 36140 ft 392 kts 233°
2026-05-04 02:22 25.92183 122.47025 36147 ft 392 kts 233°
2026-05-04 02:22 25.88612 122.42436 36146 ft 393 kts 233°
2026-05-04 02:23 25.85055 122.37870 36142 ft 393 kts 233°
2026-05-04 02:23 25.81473 122.33275 36139 ft 393 kts 233°
2026-05-04 02:24 25.77881 122.28673 36142 ft 394 kts 233°
2026-05-04 02:24 25.74292 122.24079 36140 ft 394 kts 233°
2026-05-04 02:25 25.70701 122.19487 36139 ft 394 kts 233°
2026-05-04 02:25 25.67125 122.14918 36132 ft 394 kts 233°
2026-05-04 02:26 25.63536 122.10310 36133 ft 394 kts 235°
2026-05-04 02:26 25.61982 122.07821 35999 ft 390 kts 243°
2026-05-04 02:26 25.60889 122.05095 35759 ft 385 kts 252°
2026-05-04 02:27 25.60109 122.02285 35396 ft 380 kts 254°
2026-05-04 02:27 25.59401 121.99479 34977 ft 375 kts 254°
2026-05-04 02:27 25.58707 121.96699 34568 ft 372 kts 254°
2026-05-04 02:27 25.58016 121.93946 34157 ft 371 kts 253°
2026-05-04 02:28 25.57319 121.91195 33712 ft 372 kts 253°
2026-05-04 02:28 25.56614 121.88419 33253 ft 375 kts 253°
2026-05-04 02:28 25.55913 121.85670 32811 ft 377 kts 253°
2026-05-04 02:28 25.55198 121.82871 32372 ft 379 kts 253°
2026-05-04 02:29 25.54479 121.80060 31945 ft 380 kts 253°
2026-05-04 02:29 25.53755 121.77235 31515 ft 382 kts 253°
2026-05-04 02:29 25.53029 121.74402 31094 ft 383 kts 253°
2026-05-04 02:29 25.52300 121.71562 30683 ft 385 kts 253°
2026-05-04 02:30 25.51568 121.68711 30286 ft 386 kts 253°
2026-05-04 02:30 25.50831 121.65845 29782 ft 385 kts 253°
2026-05-04 02:30 25.50100 121.63002 29319 ft 383 kts 253°
2026-05-04 02:30 25.49348 121.60181 28856 ft 380 kts 251°
2026-05-04 02:31 25.48302 121.57510 28392 ft 377 kts 241°
2026-05-04 02:31 25.46813 121.55135 27942 ft 376 kts 233°
2026-05-04 02:31 25.45133 121.52921 27496 ft 375 kts 232°
2026-05-04 02:31 25.43427 121.50749 27063 ft 373 kts 231°
2026-05-04 02:32 25.41730 121.48593 26621 ft 371 kts 232°
2026-05-04 02:32 25.40044 121.46448 26197 ft 368 kts 232°
2026-05-04 02:32 25.38366 121.44309 25777 ft 366 kts 232°
2026-05-04 02:32 25.36699 121.42183 25362 ft 364 kts 232°
2026-05-04 02:33 25.35042 121.40069 24947 ft 363 kts 232°
2026-05-04 02:33 25.33414 121.37992 24550 ft 361 kts 232°
2026-05-04 02:33 25.31776 121.35902 24158 ft 359 kts 232°
2026-05-04 02:33 25.30146 121.33823 23747 ft 357 kts 232°
2026-05-04 02:34 25.28524 121.31755 23290 ft 355 kts 232°
2026-05-04 02:34 25.26911 121.29699 22825 ft 353 kts 232°
2026-05-04 02:34 25.25300 121.27647 22368 ft 351 kts 232°
2026-05-04 02:34 25.23707 121.25619 21915 ft 348 kts 232°
2026-05-04 02:35 25.22133 121.23616 21477 ft 343 kts 232°
2026-05-04 02:35 25.20578 121.21639 21040 ft 338 kts 232°
2026-05-04 02:35 25.19042 121.19686 20637 ft 333 kts 232°
2026-05-04 02:35 25.17540 121.17776 20286 ft 327 kts 232°
2026-05-04 02:36 25.16061 121.15897 19936 ft 321 kts 232°
2026-05-04 02:36 25.14608 121.14052 19592 ft 315 kts 232°
2026-05-04 02:36 25.13182 121.12241 19254 ft 310 kts 232°
2026-05-04 02:36 25.11778 121.10460 18913 ft 305 kts 232°
2026-05-04 02:37 25.10416 121.08729 18584 ft 301 kts 233°
2026-05-04 02:37 25.09055 121.07000 18222 ft 296 kts 232°
2026-05-04 02:37 25.07714 121.05295 17841 ft 292 kts 232°
2026-05-04 02:37 25.06389 121.03613 17456 ft 288 kts 232°
2026-05-04 02:38 25.05082 121.01953 17078 ft 284 kts 232°
2026-05-04 02:38 25.03792 121.00317 16707 ft 281 kts 232°
2026-05-04 02:38 25.02620 120.98620 16340 ft 275 kts 242°
2026-05-04 02:38 25.02089 120.97337 16101 ft 271 kts 252°
2026-05-04 02:39 25.01824 120.95325 15771 ft 270 kts 270°
2026-05-04 02:39 25.02242 120.93305 15441 ft 275 kts 289°
2026-05-04 02:39 25.03370 120.91581 15180 ft 285 kts 310°
2026-05-04 02:39 25.05128 120.90465 14947 ft 303 kts 335°
2026-05-04 02:40 25.07277 120.90234 14717 ft 322 kts
2026-05-04 02:40 25.09430 120.91062 14483 ft 338 kts 28°
2026-05-04 02:40 25.11132 120.92879 14271 ft 345 kts 50°
2026-05-04 02:40 25.12530 120.95045 14053 ft 347 kts 54°
2026-05-04 02:41 25.13916 120.97236 13806 ft 347 kts 53°
2026-05-04 02:41 25.15321 120.99397 13542 ft 346 kts 52°
2026-05-04 02:41 25.16720 121.01552 13297 ft 345 kts 53°
2026-05-04 02:41 25.17919 121.03838 13035 ft 343 kts 71°
2026-05-04 02:42 25.18240 121.06384 12774 ft 332 kts 102°
2026-05-04 02:42 25.17536 121.08635 12537 ft 313 kts 130°
2026-05-04 02:42 25.16025 121.10345 12287 ft 295 kts 155°
2026-05-04 02:42 25.14219 121.11169 12049 ft 279 kts 177°
2026-05-04 02:43 25.12340 121.11177 11804 ft 265 kts 198°
2026-05-04 02:43 25.10668 121.10440 11562 ft 256 kts 218°
2026-05-04 02:43 25.09380 121.09129 11326 ft 251 kts 232°
2026-05-04 02:43 25.08329 121.07590 11091 ft 251 kts 236°
2026-05-04 02:44 25.07319 121.06010 10854 ft 251 kts 236°
2026-05-04 02:44 25.06310 121.04435 10616 ft 251 kts 236°
2026-05-04 02:44 25.05299 121.02872 10387 ft 250 kts 235°
2026-05-04 02:44 25.04286 121.01317 10152 ft 249 kts 235°
2026-05-04 02:45 25.03273 120.99769 9868 ft 248 kts 235°
2026-05-04 02:45 25.02204 120.98275 9563 ft 248 kts 231°
2026-05-04 02:45 25.01080 120.96833 9263 ft 247 kts 230°
2026-05-04 02:45 24.99951 120.95411 8957 ft 246 kts 230°
2026-05-04 02:46 24.98838 120.94014 8660 ft 245 kts 230°
2026-05-04 02:46 24.97715 120.92602 8371 ft 244 kts 230°
2026-05-04 02:46 24.96599 120.91192 8071 ft 243 kts 229°
2026-05-04 02:46 24.95405 120.89875 7770 ft 244 kts 217°
2026-05-04 02:47 24.93798 120.89305 7492 ft 252 kts 184°
2026-05-04 02:47 24.92114 120.89930 7208 ft 267 kts 149°
2026-05-04 02:47 24.90986 120.91584 6915 ft 281 kts 115°
2026-05-04 02:47 24.90765 120.93737 6645 ft 286 kts 92°
2026-05-04 02:48 24.90895 120.95897 6345 ft 278 kts 90°
2026-05-04 02:48 24.90988 120.97983 6059 ft 268 kts 92°
2026-05-04 02:48 24.91011 120.99998 5748 ft 258 kts 93°
2026-05-04 02:48 24.91031 121.01921 5432 ft 247 kts 83°
2026-05-04 02:49 24.91570 121.03678 5081 ft 239 kts 63°
2026-05-04 02:49 24.92501 121.05123 4726 ft 230 kts 51°
2026-05-04 02:49 24.93533 121.06395 4348 ft 213 kts 50°
2026-05-04 02:49 24.94479 121.07567 3981 ft 196 kts 52°
2026-05-04 02:50 24.95347 121.08658 3597 ft 183 kts 53°
2026-05-04 02:50 24.96159 121.09693 3238 ft 175 kts 53°
2026-05-04 02:50 24.96931 121.10687 2875 ft 165 kts 52°
2026-05-04 02:50 24.97648 121.11610 2638 ft 150 kts 51°
2026-05-04 02:51 24.98288 121.12426 2480 ft 134 kts 51°
2026-05-04 02:51 24.98884 121.13182 2299 ft 128 kts 51°
2026-05-04 02:51 24.99468 121.13926 2134 ft 128 kts 50°
2026-05-04 02:51 25.00052 121.14670 1959 ft 129 kts 50°
2026-05-04 02:52 25.00638 121.15416 1795 ft 128 kts 51°
2026-05-04 02:52 25.01212 121.16149 1644 ft 124 kts 48°
2026-05-04 02:52 25.01778 121.16868 1461 ft 125 kts 48°
2026-05-04 02:52 25.02350 121.17596 1284 ft 126 kts 49°
2026-05-04 02:53 25.02923 121.18326 1109 ft 126 kts 49°
2026-05-04 02:53 25.03497 121.19057 931 ft 126 kts 49°
2026-05-04 02:53 25.04072 121.19789 750 ft 126 kts 52°
2026-05-04 02:53 25.04649 121.20525 589 ft 128 kts 53°
2026-05-04 02:54 25.05225 121.21261 427 ft 125 kts 52°
2026-05-04 02:54 25.05794 121.21982 245 ft 124 kts 54°
2026-05-04 02:54 25.06338 121.22675 112 ft 118 kts 54°
2026-05-04 02:54 25.06805 121.23271 97 ft 76 kts 48°
2026-05-04 02:55 25.07254 121.23722 97 ft 16 kts 19°
2026-05-04 02:55 25.07320 121.23747 100 ft 6 kts 18°
2026-05-04 02:55 25.07359 121.23761 102 ft 6 kts 19°
2026-05-04 02:56 25.07373 121.23766 101 ft 1 kts 18°
2026-05-04 02:56 25.07388 121.23772 102 ft 6 kts 18°
2026-05-04 02:56 25.07444 121.23792 102 ft 8 kts 20°
2026-05-04 02:56 25.07491 121.23824 102 ft 8 kts 40°
2026-05-04 02:57 25.07528 121.23866 102 ft 8 kts 47°
2026-05-04 02:57 25.07583 121.23935 102 ft 14 kts 49°
2026-05-04 02:57 25.07648 121.24018 103 ft 15 kts 49°
2026-05-04 02:57 25.07716 121.24104 103 ft 15 kts 49°
2026-05-04 02:58 25.07787 121.24194 102 ft 16 kts 49°
2026-05-04 02:58 25.07854 121.24271 103 ft 10 kts 27°
2026-05-04 02:58 25.07908 121.24245 103 ft 9 kts 320°
2026-05-04 02:58 25.07955 121.24200 102 ft 11 kts 319°
2026-05-04 02:59 25.08015 121.24170 104 ft 9 kts 28°
2026-05-04 02:59 25.08056 121.24218 104 ft 7 kts 46°
2026-05-04 02:59 25.08081 121.24221 103 ft 2 kts 312°
2026-05-04 02:59 25.08100 121.24205 104 ft 4 kts 327°
2026-05-04 03:00 25.08126 121.24187 104 ft 4 kts 324°
2026-05-04 03:00 25.08136 121.24162 103 ft 4 kts 287°
2026-05-04 03:00 25.08144 121.24135 104 ft 3 kts 287°
2026-05-04 03:00 25.08147 121.24126 104 ft 1 kts 288°
2026-05-04 03:01 25.08147 121.24125 104 ft 0 kts 288°